Regional Weather Roundup
Issued by NWS Jackson, KY

Home | Current Version | Previous Version | Graphics & Text | Print | Product List | Glossary On
Versions: 1 2 3 4 5 6 7 8 9 10 11 12 13 14 15 16 17 18 19 20 21 22 23 24 25 26 27 28 29 30 31 32 33 34 35 36 37 38 39 40 41 42 43 44 45 46 47 48 49 50
000
ASUS43 KJKL 210510
RWRJKL

EAST KENTUCKY HOURLY WEATHER ROUNDUP
NATIONAL WEATHER SERVICE JACKSON KY
100 AM EDT THU AUG 21 2014

NOTE: "FAIR" INDICATES FEW OR NO CLOUDS BELOW 12,000 FEET WITH
NO SIGNIFICANT WEATHER AND/OR OBSTRUCTIONS TO VISIBILITY.

* THESE REPORTS ARE NOT UNDER NWS QUALITY CONTROL AND MAY NOT
  REPORT WEATHER SUCH AS PRECIPITATION AND FOG.

KYZ079-080-083-085-087-088-110-112-115-119-120-210600
...EASTERN KENTUCKY...

CITY           SKY/WX    TMP DP  RH WIND       PRES   REMARKS
JACKSON        CLOUDY    67  65  93 CALM      30.10F
LONDON         CLOUDY    69  65  86 SW3       30.11F
SOMERSET*      CLOUDY    68  68 100 S3        30.11F
MONTICELLO*    CLOUDY    68  67  96 CALM      30.11F
WILLIAMSBURG*  CLEAR     66  66 100 CALM      30.12F
MIDDLESBORO*   CLOUDY    66  66 100 CALM      30.14S
HARLAN APT*    CLOUDY    64  64 100 MISG      30.15S VSB<1/4
HAZARD APT*    CLEAR     68  68 100 SW5       30.11S
BLACK MTN*       N/A     64  59  82 S8          N/A
PIKEVILLE APT* CLEAR     66  64  94 SW3       30.10S
BIG SANDY*     MOCLDY    68  67  95 W3        30.09R
MOREHEAD APT*  PTCLDY    70  68  94 CALM      30.09F
$$

KYZ035-036-041-042-044-050-067-078-099-210600
...CENTRAL KENTUCKY...

CITY           SKY/WX    TMP DP  RH WIND       PRES   REMARKS
MT STERLING*   MOCLDY    68  68 100 SW5       30.08F
FLEMING/MASON* CLEAR     70  68  94 SW7       30.06F
DANVILLE*      MOCLDY    68  66  94 S7        30.08F
RICHMOND*      MOCLDY    68  64  88 CALM      30.07F
LEXINGTON      CLOUDY    70  67  90 S6        30.07F
FRANKFORT      CLOUDY    70  68  93 S3        30.05F
$$

KYZ091>093-OHZ055-061-077-WVZ005-015-034-035-042-210600
...SOUTHERN OHIO/WEST VIRGINIA...

CITY           SKY/WX    TMP DP  RH WIND       PRES   REMARKS
COVINGTON      CLOUDY    71  68  90 SW5       30.04S
COLUMBUS       CLEAR     77  66  68 W9        30.02R
DAYTON         PTCLDY    71  67  87 SW7       30.04F
WILMINGTON     PTCLDY    68  66  93 SW7       30.04S
HUNTINGTON     MOCLDY    71  67  87 S5        30.04F
CHARLESTON     PTCLDY    71  71 100 W5        30.04R
PINEVILLE*     CLOUDY    69  69 100 MISG      30.15R FOG
BECKLEY        CLOUDY    69  66  90 S7        30.12F
BLUEFIELD      CLOUDY    70  62  76 W6        30.15F
$$

VAZ002-007-008-TNZ017-027-036-066-071-210600
...SOUTHWEST VIRGINIA/EAST TENNESSEE...

CITY           SKY/WX    TMP DP  RH WIND       PRES   REMARKS
WISE*          CLOUDY    64  64 100 SW13      30.18S
JONESVILLE*    FOG       66  66 100 CALM      30.17R VSB 1/4
ABINGDON*      CLOUDY    69  68  98 W7        30.15S
BRISTOL        CLOUDY    68  65  90 NW5       30.13S
KNOXVILLE      MOCLDY    68  67  96 W8        30.13R
OAK RIDGE      MOCLDY    69  67  93 CALM      30.15F
CROSSVILLE     MOCLDY    68  65  90 CALM      30.18S
NASHVILLE      CLOUDY    73  70  90 E6        30.10R
$$

...KEY TO REMARKS...
VSB - VISIBILITY IN MILES
WCI - WIND CHILL INDEX
HX  - HEAT INDEX

$$


USA.gov is the U.S. government's official web portal to all federal, state and local government web resources and services.